{"data":{"norad_id":53274,"intl_designator":"2022-086AJ","name":"STARLINK-4050","alt_names":[],"object_type":"PAYLOAD","status":"ACTIVE","operator":null,"country":"US","launch_date":"2022-07-24","launch_site_code":"AFETR","launch_vehicle":null,"mission":null,"orbit_class":"UNKNOWN","rcs_meters":null,"size_class":null,"mass_kg":null,"dimensions":null,"purposes":["comms"],"wikipedia_slug":null,"has_3d_model":false,"image_url":null,"decayed_at":null,"tle_current":{"epoch":"2026-09-19T23:34:38.616960Z","epoch_age_seconds":120093,"freshness":"FRESH","line1":"1 53274U 22086AJ  26262.98239140  .00000693  00000+0  32405-4 0  9998","line2":"2 53274  53.1610  16.4505 0001107  79.0976 281.0151 15.33537990230746","mean_motion":15.3353799,"eccentricity":0.0001107,"inclination_deg":53.161,"raan_deg":16.4505,"arg_perigee_deg":79.0976,"mean_anomaly_deg":281.0151,"bstar":3.2405e-5,"rev_number":23074,"period_min":93.900510413831,"perigee_km":464.50895087371,"apogee_km":466.02408041208,"semimajor_km":6843.4035156429,"source":"CELESTRAK","updated_at":"2026-09-20T09:00:40.218504Z"}}}